GW1983 Weather Reports


time (UTC)temp
F
wind
direction
speed
knots
gust
knots
rain 1hr
in
rain 24hr
in
rain mn
in
humidity
%
barometer
mb
20260507084536 49 0 0.0 1.7 0.00 0.23 0.00 90 1005.8
20260507083035 49 360 0.0 3.5 0.00 0.23 0.00 89 1006.0
20260507081552 49 360 0.9 3.5 0.00 0.23 0.00 88 1006.0
20260507080045 50 360 0.9 3.5 0.00 0.23 0.00 88 1005.8
20260507074544 50 360 0.9 3.5 0.00 0.23 0.00 88 1005.5
20260507073053 50 360 0.9 3.5 0.00 0.23 0.00 89 1005.3
20260507071535 50 0 0.0 2.6 0.00 0.23 0.00 89 1005.5
20260507070121 50 360 0.0 4.3 0.00 0.23 0.00 88 1004.8
20260507064548 51 360 1.7 4.3 0.00 0.23 0.00 88 1004.9
20260507063041 51 360 0.9 3.5 0.00 0.23 0.00 89 1005.1
20260507061539 51 360 1.7 5.2 0.00 0.23 0.00 89 1005.0
20260507060040 52 360 0.9 3.5 0.00 0.23 0.00 90 1004.9
20260507054550 52 360 0.9 3.5 0.00 0.23 0.00 91 1005.0
20260507053045 52 360 0.9 4.3 0.00 0.23 0.00 91 1004.3
20260507051543 53 360 1.7 7.0 0.00 0.23 0.00 92 1004.7
20260507050041 53 360 1.7 7.8 0.00 0.23 0.00 93 1004.5
20260507044544 53 360 0.9 7.0 0.00 0.23 0.00 95 1004.4
20260507043044 54 360 1.7 7.0 0.00 0.23 0.00 97 1004.3
20260507041544 54 360 1.7 7.0 0.00 0.23 0.00 98 1003.7
20260507040049 52 0 0.9 3.5 0.00 0.23 0.00 98 1003.9
20260507034541 51 0 0.0 1.7 0.00 0.23 0.23 97 1004.2
20260507033035 50 0 0.0 2.6 0.01 0.23 0.23 97 1004.1
20260507031544 50 0 0.0 1.7 0.01 0.23 0.23 97 1003.7
20260507030047 50 0 0.0 1.7 0.01 0.23 0.23 97 1003.6
20260507024544 50 0 0.0 1.7 0.01 0.23 0.23 97 1003.8
20260507023042 50 171 0.9 2.6 0.00 0.22 0.22 97 1003.9
20260507021535 50 0 0.9 2.6 0.00 0.22 0.22 97 1003.9
20260507020052 50 360 0.0 2.6 0.00 0.22 0.22 97 1004.2
20260507014602 50 0 0.9 3.5 0.00 0.22 0.22 97 1004.1
20260507013043 50 149 0.9 3.5 0.00 0.22 0.22 97 1004.5
20260507011540 50 170 0.9 3.5 0.00 0.22 0.22 97 1004.6
20260507010039 50 0 0.0 1.7 0.01 0.22 0.22 97 1004.7
20260507004537 50 0 0.0 2.6 0.01 0.22 0.22 96 1004.6
20260507003044 50 158 0.9 2.6 0.01 0.22 0.22 97 1004.6
20260507001543 50 0 0.0 3.5 0.01 0.22 0.22 96 1004.7
20260507000045 50 190 0.0 1.7 0.00 0.21 0.21 96 1004.7
20260506234536 50 0 0.0 2.6 0.00 0.21 0.21 96 1004.7
20260506233035 50 0 0.0 1.7 0.01 0.21 0.21 96 1004.6
20260506231544 50 360 0.0 2.6 0.02 0.21 0.21 96 1004.8
20260506230046 50 0 0.0 1.7 0.03 0.21 0.21 96 1005.0
20260506224540 51 360 0.0 2.6 0.04 0.21 0.21 96 1005.0
20260506223039 51 360 0.9 5.2 0.05 0.20 0.20 96 1005.1
20260506221535 51 360 0.0 3.5 0.05 0.19 0.19 96 1005.1
20260506220038 51 302 0.9 1.7 0.05 0.17 0.17 96 1005.2
20260506214546 51 0 0.0 1.7 0.08 0.17 0.17 95 1005.6
20260506213041 51 0 0.0 2.6 0.08 0.15 0.15 95 1005.9
20260506211541 51 0 0.0 2.6 0.09 0.14 0.14 95 1006.0
20260506210043 51 360 0.9 4.3 0.08 0.12 0.12 94 1006.0
20260506204535 52 0 0.9 3.5 0.06 0.09 0.09 93 1006.1
20260506203035 53 0 0.0 3.5 0.06 0.07 0.07 92 1006.1
20260506201604 53 360 0.9 2.6 0.05 0.05 0.05 93 1005.9
20260506200044 54 0 0.9 2.6 0.04 0.04 0.04 93 1005.8
20260506194548 54 0 0.0 2.6 0.03 0.03 0.03 93 1006.4
20260506193042 53 0 0.0 1.7 0.01 0.01 0.01 93 1006.6
20260506191545 52 360 0.9 3.5 0.00 0.00 0.00 91 1007.0
20260506190045 52 0 0.0 1.7 0.00 0.00 0.00 90 1006.5
20260506184548 53 360 0.0 2.6 0.00 0.00 0.00 88 1006.5
20260506183040 53 360 0.0 1.7 0.00 0.00 0.00 86 1006.4
20260506181534 53 360 0.0 2.6 0.00 0.00 0.00 86 1006.3
20260506180045 53 360 0.0 3.5 0.00 0.00 0.00 86 1006.6
20260506174543 53 0 0.0 2.6 0.00 0.00 0.00 85 1006.6
20260506173048 53 360 0.0 3.5 0.00 0.00 0.00 86 1006.7
20260506171550 53 0 0.9 3.5 0.00 0.00 0.00 86 1007.0
20260506170050 53 360 0.0 3.5 0.00 0.00 0.00 86 1007.2
20260506164544 53 360 0.0 4.3 0.00 0.00 0.00 86 1007.5
20260506163100 54 360 0.0 2.6 0.00 0.00 0.00 85 1007.8
20260506161542 54 173 0.0 3.5 0.00 0.00 0.00 85 1008.2
20260506160038 55 171 0.0 3.5 0.00 0.00 0.00 85 1008.3
20260506154539 55 144 0.9 4.3 0.00 0.00 0.00 85 1008.6
20260506153045 54 360 0.0 4.3 0.00 0.00 0.00 87 1008.4
20260506151539 54 360 0.9 3.5 0.00 0.00 0.00 87 1008.8
20260506150040 54 186 1.7 4.3 0.00 0.00 0.00 86 1008.3
20260506144537 54 161 1.7 5.2 0.00 0.00 0.00 85 1008.5
20260506143034 54 98 1.7 5.2 0.00 0.00 0.00 86 1008.3
20260506141549 54 173 0.9 5.2 0.00 0.00 0.00 88 1008.3
20260506140053 53 157 1.7 5.2 0.00 0.00 0.00 89 1008.6
20260506134539 53 130 0.9 6.1 0.00 0.00 0.00 89 1008.7
20260506133036 53 182 1.7 6.1 0.00 0.00 0.00 88 1008.6
20260506131545 53 135 0.9 6.1 0.00 0.00 0.00 89 1008.7
20260506130046 53 157 0.9 5.2 0.00 0.00 0.00 89 1008.6
20260506124544 52 182 0.9 4.3 0.00 0.00 0.00 89 1008.7
20260506123040 52 178 0.9 4.3 0.00 0.00 0.00 90 1008.7
20260506121535 52 0 0.0 1.7 0.00 0.00 0.00 90 1009.0
20260506120059 52 192 0.0 2.6 0.00 0.00 0.00 90 1009.2
20260506114550 52 360 0.0 1.7 0.00 0.00 0.00 91 1009.2
20260506113044 51 0 0.0 4.3 0.00 0.00 0.00 91 1009.1
20260506111543 51 360 0.0 2.6 0.00 0.00 0.00 90 1009.1
20260506110035 51 360 0.9 3.5 0.00 0.00 0.00 91 1009.0
20260506104541 51 0 0.0 3.5 0.00 0.00 0.00 91 1009.3
20260506103034 51 188 0.0 1.7 0.00 0.00 0.00 91 1009.2
20260506101545 51 175 0.9 2.6 0.00 0.00 0.00 91 1009.1
20260506100047 50 159 0.0 1.7 0.00 0.00 0.00 91 1009.1
20260506094545 50 0 0.0 2.6 0.00 0.00 0.00 91 1009.1
20260506093058 50 169 0.0 2.6 0.00 0.00 0.00 90 1009.0
20260506091547 50 184 0.0 3.5 0.00 0.00 0.00 90 1008.9
20260506090049 51 5 0.0 2.6 0.00 0.00 0.00 90 1008.9